RYR2DH EPMO-LHBP

Flight info

Callsign RYR2DH
Flight time 0h 54m
Altitude 38000
Route EVINA M66 BABKO DCT EDEMU
Aircraft B738/M-SDE2E3FGHIRWXY/LB1

Departure

Time 2026-04-26 09:49
Airport Warsaw Modlin Airport (EPMO)

Arrival

Time 2026-04-26 10:43
Airport Budapest Liszt Ferenc International Airport (LHBP)
Time Latitude Longitude Altitude Speed Heading
2026-04-26 09:17 52.44744 20.65258 337 ft 0 kts 206°
2026-04-26 09:40 52.44762 20.65273 332 ft 4 kts 203°
2026-04-26 09:41 52.44783 20.65278 333 ft 4 kts 138°
2026-04-26 09:41 52.44790 20.65246 333 ft 4 kts 81°
2026-04-26 09:41 52.44787 20.65216 336 ft 0 kts 81°
2026-04-26 09:44 52.44788 20.65221 336 ft 1 kts 81°
2026-04-26 09:45 52.44791 20.65263 332 ft 7 kts 82°
2026-04-26 09:45 52.44803 20.65383 335 ft 15 kts 81°
2026-04-26 09:45 52.44820 20.65574 335 ft 18 kts 83°
2026-04-26 09:45 52.44837 20.65771 333 ft 17 kts 81°
2026-04-26 09:46 52.44855 20.65963 335 ft 17 kts 81°
2026-04-26 09:46 52.44872 20.66147 337 ft 16 kts 81°
2026-04-26 09:46 52.44889 20.66324 337 ft 15 kts 81°
2026-04-26 09:46 52.44905 20.66494 334 ft 15 kts 81°
2026-04-26 09:47 52.44920 20.66656 337 ft 14 kts 81°
2026-04-26 09:47 52.44934 20.66812 337 ft 14 kts 81°
2026-04-26 09:47 52.44948 20.66961 337 ft 13 kts 81°
2026-04-26 09:47 52.44989 20.67080 337 ft 13 kts 20°
2026-04-26 09:48 52.45075 20.67064 335 ft 12 kts 354°
2026-04-26 09:48 52.45158 20.67044 337 ft 12 kts 350°
2026-04-26 09:48 52.45238 20.67008 336 ft 11 kts 344°
2026-04-26 09:48 52.45285 20.66934 337 ft 8 kts 268°
2026-04-26 09:49 52.45278 20.66842 334 ft 16 kts 262°
2026-04-26 09:49 52.45219 20.66211 336 ft 94 kts 262°
2026-04-26 09:49 52.45074 20.64821 489 ft 142 kts 265°
2026-04-26 09:49 52.44887 20.63216 1323 ft 141 kts 270°
2026-04-26 09:50 52.44712 20.61547 2062 ft 153 kts 270°
2026-04-26 09:50 52.44538 20.59801 2722 ft 167 kts 269°
2026-04-26 09:50 52.44347 20.57791 3224 ft 184 kts 268°
2026-04-26 09:50 52.44134 20.55632 3735 ft 197 kts 265°
2026-04-26 09:51 52.43428 20.53492 3971 ft 242 kts 230°
2026-04-26 09:51 52.41814 20.52162 4409 ft 277 kts 194°
2026-04-26 09:51 52.39870 20.51891 5230 ft 286 kts 188°
2026-04-26 09:51 52.37876 20.51706 6138 ft 286 kts 187°
2026-04-26 09:52 52.35883 20.51530 7047 ft 288 kts 187°
2026-04-26 09:52 52.31841 20.51008 8797 ft 295 kts 190°
2026-04-26 09:52 52.29783 20.50656 9692 ft 300 kts 191°
2026-04-26 09:53 52.27689 20.50293 10481 ft 309 kts 191°
2026-04-26 09:53 52.25452 20.49900 10751 ft 336 kts 190°
2026-04-26 09:53 52.23064 20.49489 11290 ft 351 kts 190°
2026-04-26 09:53 52.20597 20.49077 12000 ft 361 kts 190°
2026-04-26 09:54 52.18068 20.48661 12696 ft 371 kts 190°
2026-04-26 09:54 52.15463 20.48235 13435 ft 381 kts 191°
2026-04-26 09:54 52.12815 20.47804 14145 ft 391 kts 191°
2026-04-26 09:54 52.10051 20.47356 14889 ft 399 kts 191°
2026-04-26 09:55 52.07264 20.46905 15660 ft 406 kts 192°
2026-04-26 09:55 52.04424 20.46446 16405 ft 414 kts 192°
2026-04-26 09:55 52.01525 20.45977 17142 ft 423 kts 192°
2026-04-26 09:55 51.98569 20.45499 17878 ft 431 kts 193°
2026-04-26 09:56 51.95558 20.45012 18637 ft 439 kts 193°
2026-04-26 09:56 51.92510 20.44524 19328 ft 442 kts 193°
2026-04-26 09:56 51.89435 20.44034 20101 ft 445 kts 194°
2026-04-26 09:56 51.86344 20.43540 20812 ft 450 kts 194°
2026-04-26 09:57 51.83209 20.43037 21490 ft 455 kts 194°
2026-04-26 09:57 51.80040 20.42529 22170 ft 460 kts 194°
2026-04-26 09:57 51.76847 20.42018 22838 ft 464 kts 195°
2026-04-26 09:57 51.73609 20.41501 23511 ft 469 kts 195°
2026-04-26 09:58 51.70349 20.40981 24078 ft 473 kts 195°
2026-04-26 09:58 51.67058 20.40458 24645 ft 477 kts 195°
2026-04-26 09:58 51.63771 20.39938 25206 ft 480 kts 195°
2026-04-26 09:58 51.60437 20.39410 25752 ft 483 kts 195°
2026-04-26 09:59 51.57084 20.38880 26287 ft 486 kts 195°
2026-04-26 09:59 51.53704 20.38346 26812 ft 490 kts 195°
2026-04-26 09:59 51.50297 20.37808 27329 ft 493 kts 195°
2026-04-26 09:59 51.46866 20.37268 27828 ft 497 kts 195°
2026-04-26 10:00 51.43421 20.36727 28321 ft 498 kts 195°
2026-04-26 10:00 51.39972 20.36160 28878 ft 497 kts 197°
2026-04-26 10:00 51.36610 20.35096 29339 ft 487 kts 207°
2026-04-26 10:00 51.33396 20.33440 29793 ft 486 kts 210°
2026-04-26 10:01 51.30188 20.31694 30230 ft 489 kts 210°
2026-04-26 10:01 51.26961 20.29934 30610 ft 492 kts 210°
2026-04-26 10:01 51.23710 20.28187 30994 ft 494 kts 210°
2026-04-26 10:01 51.20442 20.26465 31351 ft 496 kts 208°
2026-04-26 10:02 51.17155 20.24758 31764 ft 497 kts 208°
2026-04-26 10:02 51.13854 20.23057 32110 ft 499 kts 208°
2026-04-26 10:02 51.10551 20.21360 32512 ft 500 kts 208°
2026-04-26 10:02 51.07241 20.19664 33013 ft 498 kts 208°
2026-04-26 10:03 51.03951 20.17980 33553 ft 495 kts 208°
2026-04-26 10:03 51.00679 20.16304 34049 ft 494 kts 208°
2026-04-26 10:03 50.97438 20.14641 34467 ft 490 kts 207°
2026-04-26 10:03 50.94214 20.12992 35004 ft 485 kts 207°
2026-04-26 10:04 50.91009 20.11355 35515 ft 481 kts 207°
2026-04-26 10:04 50.87830 20.09732 35948 ft 479 kts 207°
2026-04-26 10:04 50.84663 20.08118 36351 ft 478 kts 207°
2026-04-26 10:04 50.81508 20.06515 36786 ft 475 kts 206°
2026-04-26 10:05 50.78367 20.04923 37250 ft 472 kts 206°
2026-04-26 10:05 50.75261 20.03354 37763 ft 466 kts 206°
2026-04-26 10:05 50.72185 20.01801 38176 ft 464 kts 206°
2026-04-26 10:05 50.69086 20.00228 38137 ft 470 kts 206°
2026-04-26 10:06 50.62936 19.97117 38130 ft 468 kts 206°
2026-04-26 10:06 50.56786 19.94029 38131 ft 461 kts 206°
2026-04-26 10:07 50.50681 19.90962 38136 ft 461 kts 206°
2026-04-26 10:07 50.44568 19.87897 38143 ft 461 kts 206°
2026-04-26 10:08 50.38453 19.84841 38158 ft 462 kts 206°
2026-04-26 10:08 50.32317 19.81785 38125 ft 463 kts 206°
2026-04-26 10:09 50.27220 19.79254 38160 ft 462 kts 206°
2026-04-26 10:09 50.20049 19.75702 38180 ft 463 kts 206°
2026-04-26 10:10 50.13921 19.72663 38191 ft 462 kts 206°
2026-04-26 10:10 50.07797 19.69653 38183 ft 461 kts 205°
2026-04-26 10:11 50.01676 19.66651 38142 ft 461 kts 205°
2026-04-26 10:11 49.95568 19.63659 38152 ft 461 kts 205°
2026-04-26 10:12 49.90483 19.61172 38150 ft 461 kts 205°
2026-04-26 10:12 49.84376 19.58195 38144 ft 459 kts 205°
2026-04-26 10:13 49.78281 19.55230 38135 ft 458 kts 205°
2026-04-26 10:13 49.72203 19.52281 38131 ft 457 kts 205°
2026-04-26 10:14 49.66141 19.49345 38107 ft 455 kts 204°
2026-04-26 10:14 49.63078 19.48057 37924 ft 463 kts 197°
2026-04-26 10:14 49.59842 19.47522 37459 ft 470 kts 186°
2026-04-26 10:15 49.56573 19.47827 37035 ft 473 kts 176°
2026-04-26 10:15 49.53339 19.48617 36565 ft 470 kts 175°
2026-04-26 10:15 49.50122 19.49456 36042 ft 468 kts 175°
2026-04-26 10:15 49.46918 19.50297 35536 ft 466 kts 175°
2026-04-26 10:16 49.43713 19.51120 35049 ft 467 kts 175°
2026-04-26 10:16 49.40496 19.51924 34571 ft 470 kts 175°
2026-04-26 10:16 49.37259 19.52716 34109 ft 471 kts 176°
2026-04-26 10:16 49.34253 19.53443 33607 ft 470 kts 176°
2026-04-26 10:17 49.31024 19.54218 33065 ft 469 kts 176°
2026-04-26 10:17 49.27796 19.54991 32533 ft 468 kts 176°
2026-04-26 10:17 49.24585 19.55758 32024 ft 467 kts 176°
2026-04-26 10:17 49.21379 19.56522 31513 ft 466 kts 176°
2026-04-26 10:18 49.18176 19.57285 30973 ft 465 kts 176°
2026-04-26 10:18 49.14983 19.58045 30501 ft 463 kts 176°
2026-04-26 10:18 49.11800 19.58802 29988 ft 462 kts 176°
2026-04-26 10:18 49.08637 19.59553 29425 ft 460 kts 176°
2026-04-26 10:19 49.05477 19.60302 28871 ft 458 kts 176°
2026-04-26 10:19 49.02329 19.61053 28336 ft 456 kts 176°
2026-04-26 10:19 48.99208 19.61792 27800 ft 455 kts 176°
2026-04-26 10:19 48.96091 19.62526 27291 ft 453 kts 176°
2026-04-26 10:20 48.92975 19.63260 26732 ft 451 kts 176°
2026-04-26 10:20 48.89883 19.63988 26198 ft 448 kts 176°
2026-04-26 10:20 48.86853 19.64698 25730 ft 444 kts 176°
2026-04-26 10:20 48.83806 19.65409 25245 ft 442 kts 176°
2026-04-26 10:21 48.80771 19.66123 24761 ft 440 kts 176°
2026-04-26 10:21 48.77755 19.66829 24308 ft 438 kts 176°
2026-04-26 10:21 48.74710 19.67545 23835 ft 437 kts 176°
2026-04-26 10:21 48.71712 19.68250 23311 ft 435 kts 176°
2026-04-26 10:22 48.68768 19.68939 22767 ft 434 kts 176°
2026-04-26 10:22 48.65790 19.69635 22239 ft 432 kts 176°
2026-04-26 10:22 48.62822 19.70329 21720 ft 430 kts 176°
2026-04-26 10:22 48.59868 19.71017 21214 ft 429 kts 176°
2026-04-26 10:23 48.56926 19.71698 20725 ft 427 kts 176°
2026-04-26 10:23 48.53989 19.72372 20211 ft 427 kts 176°
2026-04-26 10:23 48.51056 19.73054 19712 ft 424 kts 176°
2026-04-26 10:23 48.48158 19.73731 19288 ft 420 kts 176°
2026-04-26 10:24 48.45283 19.74400 18842 ft 415 kts 175°
2026-04-26 10:24 48.42440 19.75060 18454 ft 412 kts 176°
2026-04-26 10:24 48.39625 19.75713 18095 ft 407 kts 176°
2026-04-26 10:24 48.36843 19.76356 17693 ft 402 kts 176°
2026-04-26 10:25 48.34097 19.76988 17293 ft 398 kts 176°
2026-04-26 10:25 48.31386 19.77611 16906 ft 394 kts 176°
2026-04-26 10:25 48.28682 19.78231 16506 ft 390 kts 176°
2026-04-26 10:25 48.26011 19.78844 16113 ft 386 kts 176°
2026-04-26 10:26 48.23361 19.79452 15731 ft 383 kts 176°
2026-04-26 10:26 48.20736 19.80053 15362 ft 380 kts 176°
2026-04-26 10:26 48.18134 19.80604 14983 ft 376 kts 181°
2026-04-26 10:26 48.15562 19.80503 14618 ft 363 kts 195°
2026-04-26 10:27 48.13087 19.79922 14277 ft 359 kts 196°
2026-04-26 10:27 48.10637 19.79307 13926 ft 356 kts 197°
2026-04-26 10:27 48.08198 19.78696 13526 ft 354 kts 197°
2026-04-26 10:27 48.05783 19.78104 13132 ft 351 kts 197°
2026-04-26 10:28 48.03374 19.77525 12747 ft 349 kts 197°
2026-04-26 10:28 48.00982 19.76959 12320 ft 347 kts 196°
2026-04-26 10:28 47.98619 19.76412 11944 ft 344 kts 196°
2026-04-26 10:28 47.96262 19.75864 11557 ft 341 kts 196°
2026-04-26 10:29 47.93926 19.75314 11198 ft 340 kts 196°
2026-04-26 10:29 47.91602 19.74768 10907 ft 336 kts 196°
2026-04-26 10:29 47.89306 19.74233 10626 ft 333 kts 196°
2026-04-26 10:29 47.87024 19.73704 10331 ft 331 kts 196°
2026-04-26 10:30 47.84761 19.73163 10030 ft 326 kts 199°
2026-04-26 10:30 47.82713 19.72011 9701 ft 307 kts 220°
2026-04-26 10:30 47.81086 19.70108 9380 ft 292 kts 232°
2026-04-26 10:30 47.79608 19.68052 9061 ft 289 kts 232°
2026-04-26 10:31 47.78154 19.66003 8740 ft 287 kts 232°
2026-04-26 10:31 47.76707 19.63978 8475 ft 284 kts 232°
2026-04-26 10:31 47.75273 19.61987 8207 ft 280 kts 231°
2026-04-26 10:31 47.73723 19.60209 7931 ft 292 kts 211°
2026-04-26 10:32 47.71693 19.59652 7714 ft 303 kts 186°
2026-04-26 10:32 47.69582 19.59601 7478 ft 303 kts 185°
2026-04-26 10:32 47.67470 19.59544 7228 ft 303 kts 185°
2026-04-26 10:32 47.65361 19.59479 6984 ft 303 kts 185°
2026-04-26 10:33 47.63255 19.59407 6749 ft 302 kts 185°
2026-04-26 10:33 47.61155 19.59329 6506 ft 302 kts 185°
2026-04-26 10:33 47.59060 19.59248 6230 ft 301 kts 185°
2026-04-26 10:33 47.56976 19.59164 5979 ft 298 kts 186°
2026-04-26 10:34 47.54913 19.59079 5726 ft 295 kts 185°
2026-04-26 10:34 47.52868 19.58994 5465 ft 292 kts 185°
2026-04-26 10:34 47.50842 19.58909 5213 ft 291 kts 184°
2026-04-26 10:34 47.48825 19.58824 4957 ft 290 kts 184°
2026-04-26 10:35 47.46814 19.58741 4704 ft 287 kts 184°
2026-04-26 10:35 47.44823 19.58657 4450 ft 286 kts 184°
2026-04-26 10:35 47.42853 19.58576 4189 ft 279 kts 184°
2026-04-26 10:35 47.40937 19.58498 3914 ft 271 kts 185°
2026-04-26 10:36 47.39108 19.58422 3679 ft 261 kts 185°
2026-04-26 10:36 47.37315 19.58348 3453 ft 251 kts 185°
2026-04-26 10:36 47.35557 19.58270 3211 ft 254 kts 186°
2026-04-26 10:36 47.33907 19.57622 3032 ft 238 kts 219°
2026-04-26 10:37 47.32788 19.55984 2994 ft 217 kts 237°
2026-04-26 10:37 47.31853 19.54294 2983 ft 210 kts 238°
2026-04-26 10:37 47.30937 19.52640 2992 ft 209 kts 239°
2026-04-26 10:37 47.30313 19.50759 2987 ft 202 kts 269°
2026-04-26 10:38 47.30671 19.48886 3024 ft 190 kts 308°
2026-04-26 10:38 47.31441 19.47318 2990 ft 189 kts 308°
2026-04-26 10:38 47.32192 19.45879 2999 ft 167 kts 312°
2026-04-26 10:38 47.32918 19.44633 2995 ft 150 kts 314°
2026-04-26 10:39 47.33561 19.43578 2979 ft 126 kts 315°
2026-04-26 10:39 47.34137 19.42637 2868 ft 123 kts 316°
2026-04-26 10:39 47.34713 19.41696 2706 ft 123 kts 316°
2026-04-26 10:39 47.35269 19.40794 2556 ft 116 kts 317°
2026-04-26 10:40 47.35817 19.39909 2392 ft 118 kts 316°
2026-04-26 10:40 47.36363 19.39024 2233 ft 115 kts 317°
2026-04-26 10:40 47.36888 19.38169 2073 ft 109 kts 317°
2026-04-26 10:40 47.37412 19.37321 1928 ft 114 kts 316°
2026-04-26 10:41 47.37953 19.36441 1760 ft 115 kts 317°
2026-04-26 10:41 47.38479 19.35589 1611 ft 112 kts 317°
2026-04-26 10:41 47.39013 19.34724 1460 ft 115 kts 317°
2026-04-26 10:41 47.39547 19.33858 1289 ft 111 kts 316°
2026-04-26 10:42 47.40048 19.33024 1169 ft 111 kts 314°
2026-04-26 10:42 47.40582 19.32149 1043 ft 118 kts 310°
2026-04-26 10:42 47.41154 19.31220 862 ft 119 kts 311°
2026-04-26 10:42 47.41714 19.30351 673 ft 114 kts 308°
2026-04-26 10:43 47.42237 19.29488 524 ft 111 kts 308°
2026-04-26 10:43 47.42735 19.28687 452 ft 98 kts 307°
2026-04-26 10:43 47.43116 19.28062 460 ft 58 kts 312°
2026-04-26 10:43 47.43282 19.27775 462 ft 30 kts 304°
2026-04-26 10:44 47.43341 19.27588 464 ft 0 kts 288°
2026-04-26 10:44 47.43349 19.27549 462 ft 11 kts 285°
2026-04-26 10:44 47.43370 19.27411 461 ft 15 kts 282°
2026-04-26 10:44 47.43391 19.27258 459 ft 15 kts 282°
2026-04-26 10:45 47.43412 19.27112 458 ft 14 kts 282°
2026-04-26 10:45 47.43446 19.26979 457 ft 14 kts 301°
2026-04-26 10:45 47.43505 19.26875 457 ft 13 kts 315°
2026-04-26 10:45 47.43565 19.26777 457 ft 13 kts 310°
2026-04-26 10:46 47.43623 19.26681 457 ft 12 kts 312°
2026-04-26 10:46 47.43680 19.26588 457 ft 12 kts 312°
2026-04-26 10:46 47.43736 19.26498 457 ft 12 kts 312°
2026-04-26 10:46 47.43729 19.26390 457 ft 12 kts 233°
2026-04-26 10:47 47.43685 19.26293 457 ft 11 kts 252°
2026-04-26 10:47 47.43676 19.26180 456 ft 11 kts 270°
2026-04-26 10:47 47.43663 19.26071 456 ft 11 kts 242°
2026-04-26 10:47 47.43614 19.25993 456 ft 9 kts 222°
2026-04-26 10:48 47.43602 19.25968 456 ft 3 kts 252°
2026-04-26 10:48 47.43616 19.25926 456 ft 3 kts 310°
2026-04-26 10:48 47.43623 19.25915 456 ft 0 kts 311°